Location: Hilton Head Island
(32.2163°N, 80.7526°W)
Time: 14:49:59
(UTC-04:00)

Vanguard 1 - Pass Details

Date: 23 February 2026
Orbit: 653 x 3818 km, 34.2° (Epoch: 9 March)

Event Time Altitude Azimuth Distance (km) Brightness Sun altitude
Rises 20:56:15 0° 287° (WNW) 6,345 15.2 -34.5°
Reaches altitude 10° 21:00:09 10° 281° (W) 5,687 14.7 -35.3°
Maximum altitude 21:17:38 46° 216° (SW) 4,459 13.3 -38.9°
Enters shadow 21:31:09 26° 164° (SSE) 5,637 13.5 -41.7°
Drops below altitude 10° 21:38:53 10° 152° (SSE) 6,723 - -43.2°
Sets 21:44:09 0° 146° (SE) 7,525 - -44.3°
